Vertical_Velocity
-1 0 -1 -1 -10 -6 -1 -4 -0 -1 -2 3 3 -3 -20 -5 -8 -15 -4 14 1 -2 -7 0 -2 -0 2 -1 -1 -1 -0 -1 -1 -1 -0 3 0 0 -0 -0 -2 -1 -1 -0 -3 -3 -1 -3 -1
0 0 0 -2 -6 -0 -4 -2 -1 -2 -0 -3 3 -1 3 -5 1 -1 -6 4 -1 -4 -3 1 -3 -0 1 0 -0 -2 -0 -1 -1 -1 -1 0 2 -0 -1 -1 -2 -1 -2 1 -1 -2 -2 -2 -2
-1 1 -1 -3 -1 -2 -3 -1 0 -4 6 -4 -1 4 -3 -3 0 -3 3 1 2 -6 3 1 -2 -1 -1 -0 1 -1 -0 -1 -1 -1 -1 -0 1 0 -0 -1 -1 -1 -1 -1 -0 -1 -1 1 -1
-0 -0 0 -5 -2 -6 -2 -0 1 -3 -7 3 5 -1 3 -1 1 -5 2 0 3 -2 2 3 -2 1 3 -1 -4 1 0 1 -0 -0 -0 -2 -0 -1 1 -0 -1 -1 -1 -2 -2 1 -0 -1 -1
0 -0 -1 1 -4 -2 -1 -0 -0 -0 -1 -2 -1 -6 -2 -1 0 2 1 3 6 -2 2 1 -2 0 1 -1 -0 -1 -1 -0 1 0 -0 -1 -2 -1 -0 1 1 -0 -0 -0 -3 0 -1 -1 -2
-0 -0 -2 -0 -2 -2 -1 -0 1 0 -1 -4 -3 2 2 1 -1 0 -1 2 11 -2 1 2 -2 -1 2 1 0 -0 -1 -1 -2 -1 0 0 -2 -2 -2 -1 0 1 0 1 -2 -2 -2 -1 -2
-5 -2 -3 -1 -2 -2 -2 1 0 0 -0 -5 5 1 4 3 -0 3 -1 2 4 8 3 1 -3 2 4 1 -0 0 -1 0 -1 -2 -2 -1 0 -2 -3 -2 -1 -0 0 0 0 -0 -0 -0 0
2 -4 1 -2 -2 -8 -3 -1 0 2 -7 6 -2 -2 -7 1 3 1 1 1 6 5 5 2 -2 -0 0 2 4 1 0 1 0 -0 0 -1 -1 0 -1 -2 -2 -2 -1 0 0 1 1 -0 0
2 -0 -0 -3 0 -6 2 0 2 1 3 -3 3 -2 3 5 -1 5 2 3 2 5 2 3 -0 -0 -0 2 1 5 4 2 2 1 1 -1 -1 -1 -0 1 0 -0 0 1 1 0 -0 0 1
-1 1 -6 -3 -2 -1 0 2 0 -1 -3 -5 -3 -4 4 3 -2 -1 -7 -7 -3 -1 -0 2 2 -1 0 2 1 1 2 0 -1 -1 -3 -1 0 1 1 1 1 1 -0 1 1 2 1 0 0
-0 -6 -7 -5 0 4 0 -1 2 1 -1 -2 1 -1 -3 28 -1 -0 12 11 10 6 0 -2 -1 -1 -1 -0 0 1 -0 0 0 1 -1 -0 -1 -1 0 0 -2 -1 -1 -0 -1 -0 0 0 2
4 -2 1 -1 1 -0 0 1 -1 2 -10 -2 1 6 -4 -9 18 -5 -3 -6 -9 -7 -0 -0 -2 -1 0 1 -1 0 -1 -2 0 0 1 -2 -2 -1 -1 0 1 -0 -0 -0 0 -0 0 2 2
7 -7 0 -0 1 -3 2 -4 -1 -12 -4 -0 -3 11 -4 -7 -9 32 26 15 8 -4 -2 -1 -1 -0 0 -1 0 -1 -2 -2 -2 -2 -1 -2 -1 -1 -1 -2 -2 2 -0 -1 -1 0 0 -0 1
1 2 -4 -2 -3 -2 8 -3 6 -35 3 -2 -1 -2 9 -9 -3 0 6 -2 -4 6 3 -1 -1 -1 1 0 0 0 -0 0 -0 -2 -1 -1 -0 -0 -0 -0 -1 -2 -2 0 1 2 2 2 -0
-1 3 -4 -3 -3 -3 4 4 -5 -24 10 3 -2 -3 1 1 1 -14 5 4 2 -5 3 -2 -4 -1 -2 1 2 3 3 -0 -1 -0 -0 -1 -0 0 0 0 -1 -0 -2 -1 -1 -1 -2 -2 -2
2 7 1 -6 2 -7 5 -20 -10 6 0 -4 -0 -4 -3 5 -2 -2 -4 2 11 10 -7 3 -4 -3 -2 -4 1 1 1 2 1 0 1 1 -0 1 1 -2 -3 2 -0 -0 -3 -0 1 0 -3
3 -2 1 -10 -1 -0 2 -11 -15 12 2 0 2 -2 -4 -0 5 3 -3 -3 -0 0 3 -1 -4 -4 -2 -0 -1 -0 0 -0 0 2 1 0 1 0 0 -1 -0 -0 -1 -2 0 -2 -1 -1 -0
-3 2 -2 -0 -7 3 2 -9 -5 -2 5 -1 -3 -3 -4 -3 -10 4 3 1 -5 2 2 11 7 3 2 10 7 2 2 1 1 1 2 3 0 1 -2 -0 2 3 -0 -2 -3 -1 1 -0 3
2 6 2 -7 -4 17 -2 -2 -7 -4 2 -0 -3 3 -1 -2 -7 -0 8 6 1 3 3 1 -2 -1 0 -8 -4 -0 -13 -1 2 0 -0 2 1 0 3 -1 3 2 -3 2 3 2 -1 -1 2
2 2 -8 -7 -2 16 -1 -8 -3 -0 -4 -3 -2 -5 -1 -1 -3 0 5 5 -4 -2 -4 0 -2 8 -0 -3 -5 5 14 -1 3 2 -5 -3 0 1 -0 1 -3 2 3 -0 0 1 1 3 3
-2 -0 -2 2 -3 -6 6 -7 -2 -4 1 2 -1 -3 -4 -0 -6 -5 -1 2 9 -1 -5 -5 -1 1 1 5 11 8 8 10 1 -4 -2 -9 -1 -1 1 -2 -1 0 1 -0 1 2 0 2 2
4 -3 0 2 -1 -0 3 -5 -2 -1 -1 0 -1 2 -4 -7 10 -3 -4 3 -1 0 4 -4 -0 -4 0 10 0 -3 -13 -11 -13 -3 10 -3 -2 -5 -5 -4 -2 1 2 -1 -0 6 3 5 3
-12 0 -2 1 1 -0 -7 6 -11 -0 -2 -3 -2 -2 5 2 -0 9 -4 -10 -5 11 -3 -0 0 3 4 -2 -3 3 0 -3 15 9 1 -3 2 3 5 -2 -3 -6 -3 1 -1 -1 0 -3 4
-2 2 3 2 -0 4 -6 -1 -3 1 6 -4 -0 -0 -0 -3 -5 -1 15 5 1 4 -0 -0 -1 -1 1 2 4 -4 -0 -0 -0 -3 -8 -4 -0 3 1 4 -1 5 -1 -2 1 0 -4 2 1
-4 -2 -0 -2 4 -4 -1 1 10 -1 1 1 3 3 4 6 -1 6 2 -2 -2 4 5 6 3 4 5 1 5 0 -6 7 6 11 3 3 1 -5 -8 -5 -0 1 4 6 3 -6 2 5 -1
-0 1 -7 -4 -2 -4 -0 -0 9 6 4 4 8 10 1 8 -1 7 5 4 -2 -2 3 7 8 10 3 8 5 2 18 7 7 2 3 2 -1 8 7 8 -2 -5 -2 1 4 4 -3 2 0
3 -2 4 1 -1 -1 -3 5 -6 -6 -6 -5 -2 -1 -2 6 -3 3 10 4 6 2 3 3 7 6 8 5 4 5 -0 -3 -2 -2 3 -1 0 25 20 4 18 4 8 2 8 -1 -6 6 3
-8 1 -3 -3 -4 -1 1 1 4 -5 -3 -2 -5 -0 -1 2 1 3 5 5 2 3 6 5 6 4 6 6 10 18 7 7 17 24 26 -13 14 -112 3 6 -6 16 10 5 8 3 2 2 6
-7 -6 -3 2 0 2 1 7 6 3 3 3 1 2 0 -0 2 3 12 5 2 4 3 1 0 3 0 3 11 6 9 5 1 7 12 16 3 -7 -7 13 5 7 7 -4 -5 7 13 -3 10
-0 2 1 -3 -4 -1 3 7 -0 1 1 0 3 2 3 4 6 7 1 3 9 9 6 -1 -1 -0 1 1 10 9 4 2 3 -4 -3 5 10 10 13 10 8 5 2 7 -1 2 -7 -1 -4
Height
1504 1505 1505 1505 1515 1517 1519 1509 1495 1491 1487 1484 1482 1478 1473 1474 1480 1493 1466 1470 1477 1486 1494 1500 1506 1511 1513 1515 1517 1520 1521 1524 1527 1530 1532 1535 1536 1539 1540 1542 1544 1546 1548 1549 1551 1552 1554 1555 1556
1503 1504 1505 1505 1519 1524 1510 1499 1494 1486 1487 1483 1480 1480 1479 1476 1474 1471 1471 1473 1480 1486 1492 1497 1504 1510 1513 1516 1518 1521 1523 1525 1528 1531 1533 1536 1538 1540 1542 1544 1546 1548 1550 1551 1552 1553 1555 1556 1558
1502 1503 1504 1508 1518 1514 1510 1493 1488 1482 1484 1486 1480 1477 1480 1473 1471 1473 1472 1474 1481 1487 1492 1497 1503 1509 1513 1516 1519 1521 1524 1527 1529 1532 1535 1537 1539 1541 1544 1545 1547 1549 1551 1553 1554 1555 1557 1559 1560
1502 1503 1505 1512 1511 1499 1493 1489 1489 1485 1479 1483 1482 1477 1474 1472 1471 1473 1474 1477 1481 1486 1492 1497 1503 1508 1513 1516 1519 1522 1525 1528 1530 1533 1536 1538 1541 1543 1545 1547 1548 1550 1552 1554 1556 1557 1559 1561 1563
1501 1501 1511 1512 1506 1493 1486 1487 1489 1487 1485 1482 1483 1475 1473 1471 1472 1474 1475 1478 1481 1485 1492 1498 1503 1509 1513 1516 1519 1523 1526 1529 1532 1534 1537 1539 1541 1544 1546 1548 1550 1552 1554 1555 1557 1559 1561 1563 1564
1501 1501 1517 1516 1500 1488 1485 1485 1486 1485 1482 1480 1481 1475 1471 1469 1471 1471 1478 1481 1487 1486 1491 1497 1503 1509 1513 1517 1520 1523 1526 1529 1532 1535 1538 1540 1542 1544 1546 1548 1550 1553 1555 1556 1558 1560 1562 1564 1566
1498 1506 1510 1504 1500 1492 1484 1483 1485 1483 1480 1478 1479 1476 1472 1470 1471 1474 1477 1483 1487 1490 1492 1497 1502 1508 1513 1517 1520 1524 1527 1529 1532 1535 1538 1541 1543 1545 1547 1549 1551 1553 1556 1558 1559 1561 1563 1565 1567
1496 1497 1502 1498 1491 1493 1481 1481 1482 1482 1477 1476 1476 1471 1470 1465 1470 1473 1478 1483 1488 1491 1494 1497 1501 1507 1512 1517 1520 1524 1527 1530 1532 1535 1538 1541 1543 1545 1547 1549 1551 1554 1556 1558 1560 1562 1564 1566 1567
1494 1499 1498 1489 1489 1482 1477 1479 1478 1479 1476 1476 1475 1470 1466 1464 1467 1472 1477 1483 1488 1491 1494 1497 1501 1505 1510 1515 1520 1523 1526 1530 1532 1535 1538 1540 1542 1545 1547 1550 1552 1554 1556 1558 1560 1562 1564 1566 1568
1492 1498 1478 1475 1477 1476 1477 1478 1477 1477 1475 1474 1470 1465 1464 1464 1465 1469 1471 1477 1484 1487 1490 1495 1500 1504 1509 1514 1517 1521 1524 1527 1531 1534 1536 1539 1542 1544 1547 1549 1552 1554 1556 1558 1560 1562 1564 1566 1568
1485 1477 1465 1472 1476 1475 1475 1476 1477 1474 1472 1472 1471 1468 1467 1463 1463 1468 1471 1472 1475 1483 1488 1493 1498 1503 1507 1511 1514 1518 1522 1525 1528 1532 1535 1538 1541 1544 1546 1548 1550 1552 1555 1557 1559 1561 1563 1565 1567
1489 1466 1472 1474 1477 1476 1473 1474 1472 1472 1467 1470 1470 1470 1469 1469 1463 1465 1470 1473 1476 1482 1487 1491 1496 1500 1504 1508 1511 1515 1518 1522 1526 1529 1533 1536 1539 1542 1544 1547 1549 1552 1554 1556 1558 1560 1562 1564 1565
1481 1465 1471 1473 1476 1475 1472 1468 1473 1463 1464 1467 1468 1470 1468 1470 1471 1470 1471 1474 1476 1480 1484 1489 1493 1498 1502 1505 1509 1512 1516 1520 1524 1528 1531 1534 1537 1540 1543 1546 1548 1550 1553 1555 1557 1559 1560 1562 1563
1478 1473 1472 1472 1471 1473 1470 1466 1472 1447 1458 1460 1464 1466 1467 1466 1468 1472 1472 1472 1475 1479 1483 1488 1492 1496 1500 1503 1507 1510 1514 1518 1522 1525 1528 1531 1535 1538 1541 1544 1546 1548 1551 1553 1555 1557 1559 1560 1561
1482 1475 1466 1462 1465 1467 1466 1466 1461 1432 1456 1455 1458 1462 1464 1463 1465 1466 1469 1468 1471 1475 1480 1484 1490 1495 1498 1502 1505 1509 1512 1516 1519 1522 1525 1528 1531 1535 1538 1541 1544 1547 1549 1551 1553 1554 1556 1557 1558
1485 1477 1471 1444 1457 1460 1464 1451 1446 1430 1452 1452 1453 1456 1460 1460 1459 1461 1465 1469 1472 1475 1478 1482 1486 1491 1495 1498 1502 1506 1509 1513 1516 1519 1522 1525 1529 1532 1535 1538 1541 1544 1546 1548 1549 1551 1552 1553 1555
1480 1472 1464 1460 1453 1454 1457 1441 1437 1438 1445 1446 1447 1449 1452 1456 1457 1458 1460 1464 1467 1471 1475 1477 1481 1485 1490 1495 1499 1503 1507 1509 1513 1516 1518 1522 1525 1528 1530 1534 1537 1540 1542 1544 1545 1547 1548 1550 1551
1480 1472 1468 1465 1454 1449 1451 1435 1434 1438 1440 1440 1441 1444 1447 1449 1450 1456 1457 1458 1462 1466 1470 1474 1476 1480 1484 1489 1494 1498 1502 1505 1508 1511 1514 1518 1521 1524 1527 1529 1532 1536 1538 1539 1541 1542 1544 1546 1548
1476 1473 1471 1464 1456 1450 1448 1435 1430 1435 1438 1437 1437 1436 1438 1441 1445 1449 1452 1454 1456 1459 1463 1467 1471 1475 1478 1480 1485 1489 1491 1496 1500 1504 1510 1514 1517 1520 1522 1525 1527 1530 1532 1534 1537 1539 1540 1541 1545
1471 1470 1470 1460 1456 1450 1446 1435 1433 1432 1430 1430 1430 1431 1431 1435 1438 1440 1444 1448 1450 1453 1455 1460 1464 1467 1470 1474 1478 1483 1486 1490 1495 1499 1504 1508 1511 1514 1517 1519 1522 1524 1526 1528 1531 1533 1534 1536 1540
1465 1470 1473 1461 1457 1454 1446 1437 1429 1426 1423 1422 1422 1425 1426 1427 1429 1431 1435 1439 1443 1446 1447 1451 1455 1459 1463 1468 1471 1476 1482 1485 1488 1490 1494 1498 1503 1507 1510 1513 1516 1518 1520 1521 1524 1527 1529 1531 1535
1459 1455 1462 1462 1462 1459 1461 1451 1434 1427 1421 1418 1415 1416 1419 1420 1421 1424 1427 1432 1436 1439 1441 1442 1446 1450 1453 1460 1463 1466 1468 1471 1474 1479 1485 1490 1495 1498 1502 1506 1509 1511 1513 1516 1518 1522 1524 1527 1528
1450 1444 1448 1451 1454 1468 1451 1454 1440 1428 1423 1418 1413 1414 1415 1416 1413 1414 1418 1424 1427 1431 1432 1432 1435 1439 1442 1448 1453 1457 1460 1464 1469 1471 1476 1481 1486 1491 1494 1498 1500 1502 1504 1508 1512 1514 1517 1519 1524
1445 1444 1444 1450 1454 1461 1451 1451 1445 1444 1441 1425 1419 1416 1413 1408 1406 1405 1409 1415 1417 1421 1424 1427 1429 1431 1434 1438 1442 1448 1453 1457 1460 1463 1467 1471 1476 1483 1488 1492 1494 1496 1498 1499 1503 1508 1511 1513 1514
1447 1447 1464 1475 1459 1453 1436 1439 1463 1448 1431 1423 1423 1418 1415 1407 1404 1404 1404 1404 1406 1412 1416 1419 1422 1425 1427 1430 1434 1438 1445 1450 1452 1456 1460 1465 1468 1472 1477 1484 1488 1490 1492 1493 1494 1498 1502 1504 1506
1453 1449 1461 1457 1454 1446 1435 1437 1457 1451 1443 1436 1431 1422 1417 1413 1413 1414 1409 1407 1407 1410 1412 1414 1417 1422 1423 1427 1429 1435 1439 1445 1451 1455 1458 1460 1464 1466 1472 1469 1476 1481 1486 1488 1488 1489 1493 1495 1496
1445 1453 1455 1445 1443 1443 1438 1447 1441 1447 1444 1440 1437 1431 1428 1426 1422 1425 1418 1418 1413 1411 1412 1413 1415 1420 1422 1425 1429 1434 1436 1440 1443 1449 1452 1458 1464 1467 1464 1458 1462 1473 1476 1480 1481 1482 1486 1487 1489
1457 1461 1450 1455 1475 1455 1441 1446 1459 1462 1458 1455 1447 1442 1436 1435 1432 1434 1428 1425 1423 1422 1420 1418 1419 1421 1423 1426 1429 1431 1433 1437 1441 1432 1439 1450 1458 1461 1470 1460 1463 1468 1469 1472 1472 1474 1477 1479 1481
1468 1467 1466 1462 1466 1462 1447 1467 1476 1471 1469 1464 1459 1456 1451 1443 1441 1439 1433 1433 1432 1429 1428 1426 1427 1428 1429 1433 1431 1430 1432 1431 1434 1435 1436 1444 1451 1457 1462 1460 1460 1459 1461 1465 1463 1463 1466 1472 1474
1473 1478 1471 1474 1479 1489 1477 1476 1476 1470 1469 1469 1463 1461 1456 1451 1445 1441 1439 1435 1435 1436 1436 1432 1433 1433 1434 1438 1437 1433 1432 1433 1434 1436 1439 1442 1445 1447 1449 1450 1451 1450 1453 1456 1458 1460 1462 1465 1466